Location: Las Vegas
(36.1750°N, 115.1360°W)
Time: 15:35:31
(UTC-07:00)

OTV 5 (USA 277) - Visible Passes

Search period start: 22 April 2019 00:00
Search period end: 02 May 2019 00:00
Orbit: 309 x 326 km, 54.5° (Epoch: 21 April)

Date Brightness Start Highest point End Pass type
(mag) Time Alt. Az. Time Alt. Az. Time Alt. Az.
22 Apr ? 04:54:39 10° NW 04:57:19 85° SW 04:59:57 10° SE visible
22 Apr ? 21:12:46 10° WSW 21:14:38 30° W 21:14:38 30° W visible
23 Apr ? 03:38:56 13° ENE 03:38:56 13° ENE 03:39:31 10° E visible
23 Apr ? 05:10:00 11° WNW 05:11:55 22° SW 05:14:03 10° S visible
23 Apr ? 19:53:24 10° SSW 19:55:50 29° SE 19:58:16 10° ENE visible
23 Apr ? 21:28:33 10° WNW 21:30:14 15° NW 21:31:37 11° N visible
24 Apr ? 20:07:46 10° SW 20:10:29 71° NW 20:13:12 10° NE visible
25 Apr ? 20:23:03 10° W 20:25:17 22° NW 20:27:32 10° NNE visible
26 Apr ? 20:39:54 10° NW 20:40:16 10° NNW 20:40:37 10° NNW visible
